contact:dominique.lefevre@mio.osupytheas.fr, maurice.libes@osupytheas.fr, didier.mallarino@osupytheas.fr
Project:EMSO http://www.emso-fr.org/EMSO-France
Depth: 2436.0 m
Title:EMSO Ligure Ouest : Data MII capteur AQUADOPP
Date,Latitude,Longitude,X_East,Y_North,Z_Up,Amplitude_X,Amplitude_Y,Amplitude_Z,Batterie,SoundSpeed,Heading,Pitch,Roll,Pressure,TIS,Speed,Direction
, degrees North, degrees East, m.s-1, m.s-1,m.s-1, 1, 1, 1, Volt, m.s-1, degree, degree, degree, dbar, degree_C, m.s-1, degree
2022-08-29T00:04:03,42.805,6.029,-0.024,0.012,-0.011,101.0,103.0,100.0,13.4,1505.2,328.7,-0.8,1.8,2471.011,13.29,0.026,296.6
2022-08-29T00:07:03,42.805,6.029,-0.017,0.004,-0.016,103.0,102.0,98.0,13.4,1505.2,329.1,-0.8,1.9,2471.028,13.29,0.017,283.2
2022-08-29T00:10:03,42.805,6.029,0.023,-0.003,0.014,104.0,101.0,100.0,13.4,1505.2,331.0,-0.8,1.8,2470.972,13.29,0.023,97.4
2022-08-29T00:13:03,42.805,6.029,-0.002,0.032,-0.014,101.0,101.0,100.0,13.4,1505.2,333.7,-0.8,1.8,2470.951,13.29,0.032,356.4
2022-08-29T00:16:03,42.805,6.029,0.014,0.016,0.0,100.0,101.0,101.0,13.3,1505.2,332.5,-0.7,1.8,2471.015,13.29,0.021,41.2
2022-08-29T00:19:03,42.805,6.029,0.01,-0.011,-0.013,102.0,102.0,100.0,13.4,1505.2,326.0,-0.8,1.8,2470.965,13.3,0.014,137.7
2022-08-29T00:22:03,42.805,6.029,0.011,0.005,-0.023,100.0,102.0,101.0,13.4,1505.2,321.5,-0.7,1.8,2470.974,13.3,0.012,65.6
2022-08-29T00:25:03,42.805,6.029,-0.013,0.007,-0.011,101.0,102.0,102.0,13.3,1505.2,326.0,-0.8,1.8,2470.957,13.3,0.014,298.3
2022-08-29T00:28:03,42.805,6.029,-0.016,0.026,0.009,102.0,99.0,102.0,13.3,1505.2,323.2,-0.7,1.8,2470.964,13.3,0.03,328.4
2022-08-29T00:31:03,42.805,6.029,0.01,0.011,-0.026,101.0,100.0,101.0,13.4,1505.2,321.4,-0.7,1.8,2470.936,13.3,0.014,42.3
2022-08-29T00:34:03,42.805,6.029,0.01,-0.007,-0.026,100.0,102.0,102.0,13.4,1505.2,322.9,-0.7,1.9,2470.902,13.3,0.012,125.0
2022-08-29T00:37:03,42.805,6.029,-0.002,0.001,-0.02,101.0,102.0,100.0,13.3,1505.2,328.6,-0.8,1.8,2470.937,13.3,0.002,296.6
2022-08-29T00:40:03,42.805,6.029,-0.013,0.0,-0.007,101.0,103.0,100.0,13.4,1505.2,330.1,-0.8,1.9,2470.953,13.3,0.013,270.0
2022-08-29T00:43:03,42.805,6.029,-0.005,0.02,-0.014,102.0,101.0,101.0,13.4,1505.2,322.5,-0.8,1.8,2470.938,13.3,0.02,346.0
2022-08-29T00:46:03,42.805,6.029,-0.042,0.008,-0.019,101.0,102.0,101.0,13.4,1505.2,323.9,-0.7,1.8,2470.958,13.3,0.042,280.8
2022-08-29T00:49:03,42.805,6.029,-0.007,-0.006,-0.016,100.0,103.0,100.0,13.4,1505.2,329.3,-0.7,1.8,2470.949,13.3,0.009,229.4
2022-08-29T00:52:03,42.805,6.029,0.001,0.02,0.013,103.0,102.0,101.0,13.4,1505.2,323.3,-0.7,1.8,2470.908,13.3,0.02,2.9
2022-08-29T00:55:03,42.805,6.029,-0.006,0.0,-0.032,101.0,99.0,100.0,13.4,1505.2,331.7,-0.8,1.8,2470.942,13.3,0.006,270.0
2022-08-29T00:58:03,42.805,6.029,-0.008,0.01,-0.03,102.0,102.0,100.0,13.4,1505.2,323.5,-0.7,1.8,2470.949,13.3,0.012,321.3
2022-08-29T01:04:03,42.805,6.029,-0.028,0.038,-0.016,105.0,104.0,102.0,13.4,1505.2,320.6,-0.8,1.8,2470.935,13.29,0.047,323.6
2022-08-29T01:07:03,42.805,6.029,-0.006,0.008,-0.011,102.0,103.0,102.0,13.4,1505.2,323.1,-0.7,1.8,2470.977,13.29,0.01,323.1
2022-08-29T01:10:02,42.805,6.029,-0.008,0.004,-0.037,99.0,102.0,101.0,13.4,1505.2,325.2,-0.8,1.8,2470.951,13.29,0.008,296.6
2022-08-29T01:13:03,42.805,6.029,0.001,-0.005,-0.025,101.0,101.0,101.0,13.4,1505.2,320.2,-0.8,1.8,2470.953,13.29,0.005,168.7
2022-08-29T01:16:03,42.805,6.029,0.011,0.01,0.019,102.0,101.0,100.0,13.4,1505.2,324.0,-0.8,1.8,2470.894,13.3,0.014,47.7
2022-08-29T01:19:03,42.805,6.029,-0.002,0.024,0.005,101.0,103.0,100.0,13.4,1505.2,332.8,-0.8,1.8,2470.93,13.3,0.024,355.2
2022-08-29T01:22:03,42.805,6.029,-0.005,-0.006,-0.04,100.0,101.0,100.0,13.3,1505.2,333.9,-0.7,1.8,2470.936,13.3,0.007,219.8
2022-08-29T01:25:03,42.805,6.029,0.001,0.009,-0.019,101.0,103.0,101.0,13.4,1505.2,328.0,-0.8,1.8,2470.959,13.3,0.009,6.3
2022-08-29T01:28:03,42.805,6.029,-0.019,0.003,-0.045,100.0,101.0,101.0,13.4,1505.2,323.9,-0.8,1.9,2470.938,13.3,0.019,279.0
2022-08-29T01:31:03,42.805,6.029,0.009,0.013,-0.008,101.0,102.0,101.0,13.4,1505.2,329.5,-0.8,1.8,2470.92,13.3,0.015,34.7
2022-08-29T01:34:03,42.805,6.029,0.004,0.015,-0.017,102.0,102.0,100.0,13.3,1505.2,330.5,-0.7,1.8,2470.921,13.3,0.015,14.9
2022-08-29T01:37:03,42.805,6.029,-0.009,0.027,0.002,100.0,102.0,101.0,13.4,1505.2,331.1,-0.8,1.8,2470.908,13.3,0.028,341.6
2022-08-29T01:40:03,42.805,6.029,-0.007,0.018,-0.025,101.0,101.0,101.0,13.4,1505.2,321.1,-0.7,1.8,2470.903,13.3,0.019,338.8
2022-08-29T01:43:03,42.805,6.029,-0.011,0.02,0.002,103.0,100.0,100.0,13.4,1505.2,327.0,-0.8,1.8,2470.903,13.3,0.022,331.2
2022-08-29T01:46:03,42.805,6.029,0.001,-0.01,-0.028,102.0,101.0,100.0,13.3,1505.2,329.0,-0.8,1.8,2470.879,13.3,0.01,174.3
2022-08-29T01:49:03,42.805,6.029,-0.001,0.002,-0.027,102.0,102.0,101.0,13.4,1505.2,329.4,-0.8,1.9,2470.873,13.3,0.002,333.4
2022-08-29T01:52:03,42.805,6.029,0.002,0.025,0.0,101.0,102.0,100.0,13.3,1505.2,324.8,-0.7,1.8,2470.869,13.3,0.025,4.6
2022-08-29T01:55:03,42.805,6.029,0.004,0.001,-0.034,100.0,102.0,102.0,13.4,1505.2,326.6,-0.7,1.8,2470.886,13.3,0.004,76.0
2022-08-29T01:58:03,42.805,6.029,0.002,0.003,-0.039,102.0,102.0,101.0,13.3,1505.2,325.7,-0.7,1.8,2470.925,13.3,0.003,33.7
2022-08-29T02:04:03,42.805,6.029,0.0,0.004,-0.041,102.0,103.0,100.0,13.4,1505.2,333.7,-0.7,1.8,2470.935,13.29,0.004,0.0
2022-08-29T02:07:03,42.805,6.029,-0.018,-0.003,-0.054,101.0,102.0,100.0,13.4,1505.2,329.3,-0.8,1.8,2470.946,13.29,0.018,260.5
2022-08-29T02:10:03,42.805,6.029,0.009,-0.011,-0.026,101.0,102.0,107.0,13.4,1505.2,327.2,-0.7,1.9,2470.879,13.29,0.014,140.7
2022-08-29T02:13:03,42.805,6.029,-0.002,0.014,-0.015,103.0,103.0,100.0,13.3,1505.2,320.2,-0.8,1.9,2470.948,13.29,0.014,351.9
2022-08-29T02:16:03,42.805,6.029,0.0,0.002,-0.013,102.0,102.0,101.0,13.4,1505.2,324.9,-0.8,1.8,2470.898,13.29,0.002,0.0
2022-08-29T02:19:03,42.805,6.029,0.0,0.015,-0.012,101.0,103.0,100.0,13.4,1505.2,325.4,-0.8,1.8,2470.901,13.3,0.015,0.0
2022-08-29T02:22:03,42.805,6.029,-0.005,-0.008,-0.026,101.0,103.0,100.0,13.4,1505.2,322.1,-0.8,1.8,2470.917,13.3,0.009,212.0
2022-08-29T02:25:03,42.805,6.029,-0.005,0.011,-0.006,101.0,102.0,101.0,13.4,1505.2,328.2,-0.8,1.8,2470.88,13.3,0.012,335.6
2022-08-29T02:28:03,42.805,6.029,0.002,0.011,-0.021,102.0,103.0,100.0,13.4,1505.2,327.0,-0.8,1.8,2470.919,13.3,0.011,10.3
2022-08-29T02:31:03,42.805,6.029,-0.012,0.008,-0.003,102.0,102.0,100.0,13.4,1505.2,322.3,-0.8,1.8,2470.904,13.3,0.014,303.7
2022-08-29T02:34:03,42.805,6.029,0.022,0.036,0.009,102.0,103.0,101.0,13.3,1505.2,323.6,-0.7,1.9,2470.882,13.3,0.042,31.4
2022-08-29T02:37:03,42.805,6.029,-0.002,-0.014,-0.03,102.0,101.0,101.0,13.4,1505.2,325.2,-0.8,1.8,2470.865,13.3,0.014,188.1
2022-08-29T02:40:03,42.805,6.029,0.01,-0.003,-0.029,103.0,102.0,101.0,13.3,1505.2,329.5,-0.7,1.8,2470.863,13.3,0.01,106.7
2022-08-29T02:43:03,42.805,6.029,0.0,-0.012,-0.048,102.0,102.0,102.0,13.4,1505.2,325.5,-0.7,1.8,2470.893,13.3,0.012,180.0
2022-08-29T02:46:03,42.805,6.029,-0.005,0.018,-0.013,102.0,103.0,101.0,13.3,1505.2,326.6,-0.8,1.8,2470.851,13.3,0.018,344.5
2022-08-29T02:49:03,42.805,6.029,0.024,0.002,-0.009,102.0,102.0,102.0,13.4,1505.2,327.6,-0.8,1.8,2470.868,13.3,0.024,85.2
2022-08-29T02:52:03,42.805,6.029,-0.014,0.0,-0.003,101.0,102.0,101.0,13.4,1505.2,329.0,-0.8,1.8,2470.848,13.3,0.014,270.0
2022-08-29T02:55:03,42.805,6.029,-0.018,0.017,-0.001,101.0,103.0,100.0,13.4,1505.2,318.7,-0.8,1.8,2470.863,13.3,0.024,313.4
2022-08-29T02:58:03,42.805,6.029,0.015,-0.016,-0.063,102.0,102.0,100.0,13.3,1505.2,330.5,-0.8,1.8,2470.882,13.3,0.021,136.9
2022-08-29T03:04:03,42.805,6.029,0.003,0.024,0.024,102.0,104.0,100.0,13.4,1505.2,322.0,-0.8,1.9,2470.952,13.29,0.024,7.1
2022-08-29T03:07:03,42.805,6.029,0.002,0.018,0.0,102.0,103.0,101.0,13.4,1505.2,329.2,-0.8,1.8,2470.909,13.29,0.018,6.3
2022-08-29T03:10:03,42.805,6.029,-0.012,0.017,-0.007,101.0,102.0,103.0,13.4,1505.2,325.4,-0.8,1.8,2470.898,13.29,0.02,324.8
2022-08-29T03:13:03,42.805,6.029,-0.013,0.023,-0.015,102.0,102.0,101.0,13.4,1505.2,330.5,-0.8,1.8,2470.918,13.29,0.026,330.5
2022-08-29T03:16:03,42.805,6.029,0.003,0.01,-0.045,102.0,102.0,100.0,13.3,1505.2,329.5,-0.8,1.8,2470.88,13.29,0.01,16.7
2022-08-29T03:19:03,42.805,6.029,0.014,0.005,-0.017,101.0,103.0,101.0,13.4,1505.2,329.6,-0.8,1.8,2470.897,13.29,0.014,70.4
2022-08-29T03:22:03,42.805,6.029,0.026,0.005,0.004,102.0,103.0,99.0,13.4,1505.2,321.3,-0.7,1.8,2470.906,13.29,0.026,79.1
2022-08-29T03:25:03,42.805,6.029,0.0,0.019,0.005,101.0,103.0,101.0,13.4,1505.2,328.1,-0.7,1.8,2470.839,13.29,0.019,0.0
2022-08-29T03:28:03,42.805,6.029,0.006,-0.002,-0.033,102.0,100.0,101.0,13.3,1505.2,333.7,-0.8,1.8,2470.906,13.29,0.006,108.4
2022-08-29T03:31:03,42.805,6.029,0.021,0.009,-0.004,101.0,101.0,102.0,13.4,1505.2,322.6,-0.7,1.8,2470.889,13.29,0.022,66.8
2022-08-29T03:34:03,42.805,6.029,-0.008,0.009,-0.018,100.0,103.0,101.0,13.3,1505.2,327.7,-0.8,1.8,2470.9,13.29,0.012,318.4
2022-08-29T03:37:03,42.805,6.029,-0.013,0.018,-0.025,102.0,102.0,101.0,13.3,1505.2,329.5,-0.7,1.8,2470.911,13.29,0.022,324.2
2022-08-29T03:40:03,42.805,6.029,-0.001,0.002,-0.032,101.0,101.0,101.0,13.3,1505.2,327.5,-0.8,1.8,2470.873,13.29,0.002,333.4
2022-08-29T03:43:03,42.805,6.029,0.01,0.017,0.009,101.0,103.0,100.0,13.4,1505.2,325.4,-0.7,1.8,2470.897,13.29,0.019,30.5
2022-08-29T03:46:03,42.805,6.029,-0.005,0.009,-0.026,102.0,101.0,100.0,13.4,1505.2,328.3,-0.8,1.8,2470.838,13.29,0.01,330.9
2022-08-29T03:49:03,42.805,6.029,0.005,0.031,0.014,102.0,102.0,99.0,13.4,1505.2,334.2,-0.8,1.8,2470.886,13.29,0.031,9.2
2022-08-29T03:52:03,42.805,6.029,-0.005,0.027,-0.029,101.0,100.0,102.0,13.4,1505.2,332.2,-0.8,1.8,2470.878,13.29,0.027,349.5
2022-08-29T03:55:03,42.805,6.029,0.003,0.005,-0.004,101.0,102.0,101.0,13.4,1505.2,328.7,-0.7,1.8,2470.885,13.29,0.005,31.0
2022-08-29T03:58:03,42.805,6.029,0.01,-0.005,0.005,100.0,102.0,102.0,13.4,1505.2,330.1,-0.7,1.8,2470.884,13.29,0.011,116.6
2022-08-29T04:04:03,42.805,6.029,-0.006,0.001,-0.012,101.0,101.0,101.0,13.4,1505.2,321.1,-0.8,1.8,2470.959,13.29,0.006,279.5
2022-08-29T04:07:03,42.805,6.029,0.016,0.008,0.016,102.0,102.0,100.0,13.4,1505.2,329.2,-0.8,1.9,2470.909,13.29,0.017,63.4
2022-08-29T04:10:03,42.805,6.029,0.007,0.0,-0.003,102.0,101.0,100.0,13.4,1505.2,321.7,-0.7,1.9,2470.9,13.29,0.007,90.0
2022-08-29T04:13:03,42.805,6.029,-0.009,0.007,-0.011,102.0,103.0,100.0,13.4,1505.2,319.3,-0.7,1.8,2470.889,13.29,0.011,307.9
2022-08-29T04:16:03,42.805,6.029,-0.025,0.007,-0.049,101.0,102.0,100.0,13.4,1505.2,324.2,-0.8,1.8,2470.914,13.29,0.025,285.6
2022-08-29T04:19:03,42.805,6.029,0.022,0.015,-0.01,101.0,103.0,100.0,13.4,1505.2,323.0,-0.8,1.8,2470.923,13.29,0.026,55.7
2022-08-29T04:22:03,42.805,6.029,-0.022,0.018,0.0,101.0,102.0,102.0,13.4,1505.2,323.7,-0.7,1.8,2470.949,13.29,0.028,309.3
2022-08-29T04:25:03,42.805,6.029,0.007,-0.001,-0.011,102.0,101.0,100.0,13.4,1505.2,328.1,-0.8,1.8,2470.902,13.29,0.007,98.1
2022-08-29T04:28:03,42.805,6.029,0.005,0.006,-0.025,102.0,101.0,99.0,13.4,1505.2,324.4,-0.8,1.8,2470.924,13.29,0.007,39.8
2022-08-29T04:31:03,42.805,6.029,-0.006,0.013,-0.033,101.0,102.0,100.0,13.4,1505.2,334.2,-0.8,1.8,2470.898,13.29,0.014,335.2
2022-08-29T04:34:03,42.805,6.029,0.001,0.012,0.02,101.0,101.0,100.0,13.4,1505.2,333.1,-0.8,1.8,2470.9,13.29,0.012,4.8
2022-08-29T04:37:03,42.805,6.029,-0.005,0.019,0.005,103.0,102.0,101.0,13.4,1505.2,331.3,-0.7,1.8,2470.891,13.29,0.019,345.3
2022-08-29T04:40:03,42.805,6.029,0.015,0.013,-0.024,101.0,102.0,103.0,13.3,1505.2,325.0,-0.8,1.8,2470.94,13.29,0.019,49.1
2022-08-29T04:43:03,42.805,6.029,0.005,0.026,-0.011,102.0,101.0,101.0,13.4,1505.2,324.3,-0.7,1.8,2470.885,13.29,0.026,10.9
2022-08-29T04:46:03,42.805,6.029,0.005,0.021,0.001,101.0,101.0,100.0,13.4,1505.2,318.4,-0.8,1.8,2470.937,13.29,0.021,13.4
2022-08-29T04:49:03,42.805,6.029,0.003,0.001,-0.013,102.0,102.0,100.0,13.4,1505.2,322.0,-0.7,1.8,2470.919,13.29,0.003,71.6
2022-08-29T04:52:03,42.805,6.029,0.015,0.017,0.021,100.0,103.0,100.0,13.3,1505.2,327.3,-0.8,1.8,2470.961,13.29,0.022,41.4
2022-08-29T04:55:03,42.805,6.029,0.008,0.005,-0.01,102.0,103.0,100.0,13.3,1505.2,319.2,-0.8,1.8,2470.899,13.29,0.009,58.0
2022-08-29T04:58:03,42.805,6.029,-0.014,0.008,-0.025,102.0,104.0,100.0,13.3,1505.2,324.2,-0.8,1.9,2470.933,13.29,0.016,299.7
2022-08-29T05:04:03,42.805,6.029,0.006,0.016,-0.015,102.0,102.0,101.0,13.3,1505.2,328.7,-0.8,1.8,2470.972,13.29,0.017,20.6
2022-08-29T05:07:03,42.805,6.029,0.002,0.025,0.026,102.0,101.0,102.0,13.3,1505.2,325.7,-0.8,1.8,2470.96,13.29,0.025,4.6
2022-08-29T05:10:03,42.805,6.029,-0.02,0.028,0.002,102.0,102.0,100.0,13.4,1505.2,326.1,-0.8,1.9,2470.985,13.29,0.034,324.5
2022-08-29T05:13:03,42.805,6.029,0.025,0.015,-0.026,102.0,103.0,100.0,13.4,1505.2,321.6,-0.8,1.8,2470.936,13.29,0.029,59.0
2022-08-29T05:16:03,42.805,6.029,0.001,0.007,-0.004,102.0,102.0,100.0,13.3,1505.2,321.6,-0.8,1.8,2470.971,13.29,0.007,8.1
2022-08-29T05:19:03,42.805,6.029,-0.001,0.008,-0.008,101.0,102.0,100.0,13.3,1505.2,327.4,-0.8,1.8,2470.958,13.29,0.008,352.9
2022-08-29T05:22:03,42.805,6.029,-0.006,0.0,-0.004,101.0,104.0,100.0,13.4,1505.2,326.7,-0.7,1.8,2470.945,13.29,0.006,270.0
2022-08-29T05:25:03,42.805,6.029,0.004,0.021,0.001,101.0,102.0,102.0,13.4,1505.2,332.8,-0.8,1.8,2470.979,13.29,0.021,10.8
2022-08-29T05:28:03,42.805,6.029,0.006,0.008,-0.026,101.0,102.0,100.0,13.3,1505.2,332.0,-0.8,1.8,2470.934,13.29,0.01,36.9
2022-08-29T05:31:03,42.805,6.029,0.023,0.016,-0.012,103.0,102.0,101.0,13.4,1505.2,332.9,-0.8,1.8,2470.926,13.29,0.028,55.2
2022-08-29T05:34:03,42.805,6.029,0.011,0.0,0.012,100.0,101.0,103.0,13.4,1505.2,333.9,-0.8,1.8,2470.948,13.29,0.011,90.0
2022-08-29T05:37:03,42.805,6.029,0.0,0.011,-0.03,104.0,100.0,100.0,13.4,1505.2,327.6,-0.8,1.8,2470.941,13.29,0.011,0.0
2022-08-29T05:40:03,42.805,6.029,0.009,0.015,-0.007,101.0,103.0,101.0,13.3,1505.2,324.6,-0.8,1.8,2470.956,13.29,0.017,31.0
2022-08-29T05:43:03,42.805,6.029,0.01,0.023,-0.026,102.0,101.0,101.0,13.3,1505.2,325.6,-0.7,1.8,2470.939,13.29,0.025,23.5
2022-08-29T05:46:03,42.805,6.029,0.009,0.012,0.004,102.0,103.0,99.0,13.3,1505.2,327.0,-0.7,1.8,2470.921,13.29,0.015,36.9
2022-08-29T05:49:03,42.805,6.029,0.035,-0.009,-0.013,101.0,103.0,101.0,13.3,1505.2,326.8,-0.7,1.8,2470.943,13.29,0.036,104.4
2022-08-29T05:52:03,42.805,6.029,0.006,0.007,0.002,104.0,102.0,100.0,13.4,1505.2,318.1,-0.8,1.8,2470.949,13.29,0.009,40.6
2022-08-29T05:55:03,42.805,6.029,0.014,0.001,-0.03,102.0,103.0,100.0,13.4,1505.2,321.7,-0.8,1.8,2470.967,13.29,0.014,85.9
2022-08-29T05:58:03,42.805,6.029,0.011,0.028,0.023,102.0,102.0,100.0,13.3,1505.2,332.5,-0.8,1.8,2471.018,13.29,0.03,21.4
2022-08-29T06:01:03,42.805,6.029,0.012,0.01,-0.021,103.0,103.0,101.0,13.3,1505.2,330.5,-0.8,1.9,2470.967,13.29,0.015,50.2
2022-08-29T06:04:03,42.805,6.029,-0.005,0.004,-0.014,102.0,102.0,101.0,13.4,1505.2,325.0,-0.8,1.8,2470.984,13.29,0.006,308.7
2022-08-29T06:07:03,42.805,6.029,0.016,0.013,-0.012,101.0,102.0,101.0,13.4,1505.2,322.4,-0.8,1.8,2471.004,13.29,0.02,50.9
2022-08-29T06:10:03,42.805,6.029,0.0,0.0,-0.018,103.0,100.0,100.0,13.3,1505.2,331.0,-0.7,1.8,2470.998,13.29,0.0,0.0
2022-08-29T06:13:03,42.805,6.029,0.012,0.01,-0.008,102.0,102.0,101.0,13.4,1505.2,329.1,-0.7,1.8,2470.974,13.29,0.015,50.2
2022-08-29T06:16:03,42.805,6.029,0.037,-0.001,0.026,103.0,101.0,100.0,13.4,1505.2,327.1,-0.8,1.9,2471.013,13.29,0.037,91.5
2022-08-29T06:19:03,42.805,6.029,-0.009,0.0,-0.006,101.0,105.0,100.0,13.4,1505.2,333.1,-0.8,1.8,2471.013,13.29,0.009,270.0
2022-08-29T06:22:03,42.805,6.029,0.042,0.01,-0.002,102.0,102.0,99.0,13.3,1505.2,320.5,-0.8,1.8,2470.979,13.29,0.043,76.6
2022-08-29T06:25:03,42.805,6.029,0.0,0.0,-0.02,101.0,104.0,101.0,13.4,1505.2,322.6,-0.7,1.8,2470.988,13.29,0.0,0.0
2022-08-29T06:28:03,42.805,6.029,0.029,0.009,-0.007,101.0,103.0,101.0,13.4,1505.2,322.5,-0.7,1.8,2471.003,13.29,0.03,72.8
2022-08-29T06:31:03,42.805,6.029,0.014,0.02,0.023,102.0,103.0,100.0,13.3,1505.2,328.3,-0.8,1.8,2470.993,13.29,0.024,35.0
2022-08-29T06:34:03,42.805,6.029,-0.017,0.01,-0.015,101.0,104.0,100.0,13.4,1505.2,325.7,-0.8,1.8,2470.996,13.29,0.019,300.5
2022-08-29T06:37:03,42.805,6.029,-0.003,0.035,0.014,101.0,102.0,100.0,13.3,1505.2,330.8,-0.8,1.8,2471.003,13.29,0.035,355.1
2022-08-29T06:40:03,42.805,6.029,0.009,0.0,-0.03,101.0,102.0,100.0,13.4,1505.2,328.4,-0.7,1.8,2470.996,13.29,0.009,90.0
2022-08-29T06:43:03,42.805,6.029,0.012,0.014,0.004,101.0,103.0,101.0,13.4,1505.2,331.6,-0.8,1.8,2471.03,13.29,0.018,40.6
2022-08-29T06:46:03,42.805,6.029,0.038,-0.018,-0.044,102.0,103.0,100.0,13.3,1505.2,327.1,-0.8,1.8,2471.031,13.29,0.042,115.3
2022-08-29T06:49:03,42.805,6.029,0.0,0.005,-0.013,100.0,102.0,101.0,13.4,1505.2,326.1,-0.8,1.8,2471.031,13.29,0.005,0.0
2022-08-29T06:52:03,42.805,6.029,0.011,0.0,-0.006,102.0,102.0,101.0,13.4,1505.2,328.1,-0.8,1.8,2471.001,13.29,0.011,90.0
2022-08-29T06:55:03,42.805,6.029,0.013,0.024,0.005,102.0,102.0,100.0,13.4,1505.2,321.4,-0.8,1.8,2471.042,13.29,0.027,28.4
2022-08-29T06:58:03,42.805,6.029,0.022,-0.004,-0.023,103.0,102.0,101.0,13.3,1505.2,320.6,-0.8,1.8,2471.016,13.29,0.022,100.3
2022-08-29T07:04:03,42.805,6.029,0.007,0.011,-0.011,100.0,102.0,101.0,13.4,1505.2,320.8,-0.8,1.8,2471.026,13.28,0.013,32.5
2022-08-29T07:07:03,42.805,6.029,0.008,-0.02,-0.025,102.0,102.0,100.0,13.4,1505.2,330.7,-0.7,1.8,2471.045,13.28,0.021,158.2
2022-08-29T07:10:03,42.805,6.029,0.014,0.015,-0.019,101.0,102.0,101.0,13.4,1505.2,318.5,-0.8,1.8,2471.051,13.28,0.02,43.0
2022-08-29T07:13:03,42.805,6.029,0.008,0.002,-0.02,102.0,102.0,101.0,13.4,1505.2,327.4,-0.8,1.8,2471.046,13.29,0.008,76.0
2022-08-29T07:16:03,42.805,6.029,-0.006,0.001,-0.024,102.0,102.0,101.0,13.3,1505.2,323.3,-0.7,1.8,2471.049,13.29,0.006,279.5
2022-08-29T07:19:03,42.805,6.029,0.023,0.007,-0.018,101.0,103.0,101.0,13.4,1505.2,334.5,-0.8,1.8,2471.03,13.29,0.024,73.1
2022-08-29T07:22:03,42.805,6.029,-0.002,0.014,-0.021,100.0,103.0,101.0,13.3,1505.2,332.8,-0.7,1.8,2471.077,13.29,0.014,351.9
2022-08-29T07:25:03,42.805,6.029,0.02,-0.002,-0.028,102.0,103.0,100.0,13.4,1505.2,330.8,-0.8,1.8,2471.035,13.29,0.02,95.7
2022-08-29T07:28:03,42.805,6.029,0.027,0.003,-0.023,102.0,103.0,101.0,13.3,1505.2,320.7,-0.8,1.8,2471.01,13.29,0.027,83.7
2022-08-29T07:31:03,42.805,6.029,0.026,-0.01,-0.013,103.0,101.0,101.0,13.3,1505.2,323.3,-0.7,1.8,2470.995,13.29,0.027,111.0
2022-08-29T07:34:03,42.805,6.029,0.003,0.025,0.003,101.0,104.0,101.0,13.3,1505.2,332.5,-0.8,1.8,2471.052,13.29,0.025,6.8
2022-08-29T07:37:03,42.805,6.029,0.0,0.02,-0.039,102.0,102.0,101.0,13.4,1505.2,333.1,-0.8,1.8,2471.049,13.29,0.02,0.0
2022-08-29T07:40:03,42.805,6.029,0.036,0.015,-0.007,103.0,102.0,101.0,13.4,1505.2,332.6,-0.8,1.8,2471.055,13.29,0.039,67.4
2022-08-29T07:43:03,42.805,6.029,-0.002,0.004,-0.009,103.0,102.0,101.0,13.4,1505.2,328.8,-0.8,1.8,2471.011,13.29,0.004,333.4
2022-08-29T07:46:03,42.805,6.029,0.016,-0.003,-0.027,102.0,103.0,100.0,13.4,1505.2,326.8,-0.7,1.8,2471.055,13.29,0.016,100.6
2022-08-29T07:49:03,42.805,6.029,0.017,0.001,-0.032,101.0,103.0,101.0,13.4,1505.2,326.3,-0.7,1.8,2471.054,13.29,0.017,86.6
2022-08-29T07:52:03,42.805,6.029,0.027,0.0,-0.008,103.0,102.0,100.0,13.4,1505.2,322.9,-0.8,1.8,2471.045,13.29,0.026,90.0
2022-08-29T07:55:03,42.805,6.029,0.0,0.005,-0.005,102.0,102.0,100.0,13.4,1505.2,318.0,-0.7,1.8,2471.026,13.29,0.005,0.0
2022-08-29T07:58:03,42.805,6.029,0.008,-0.011,-0.028,103.0,102.0,100.0,13.4,1505.2,326.7,-0.8,1.8,2471.064,13.29,0.013,144.0
2022-08-29T08:04:03,42.805,6.029,0.025,0.012,-0.016,102.0,102.0,101.0,13.4,1505.2,327.5,-0.7,1.8,2471.114,13.28,0.027,64.4
2022-08-29T08:07:03,42.805,6.029,0.012,0.012,0.015,102.0,102.0,101.0,13.4,1505.2,332.0,-0.7,1.8,2471.062,13.28,0.016,45.0
2022-08-29T08:10:03,42.805,6.029,0.007,0.014,-0.013,102.0,106.0,101.0,13.4,1505.2,319.2,-0.8,1.8,2471.064,13.28,0.015,26.6
2022-08-29T08:13:03,42.805,6.029,0.003,0.007,-0.034,103.0,103.0,100.0,13.4,1505.2,327.9,-0.7,1.8,2471.113,13.28,0.007,23.2
2022-08-29T08:16:03,42.805,6.029,0.019,0.026,-0.02,101.0,104.0,100.0,13.3,1505.2,322.3,-0.7,1.8,2471.068,13.29,0.032,36.2
2022-08-29T08:19:03,42.805,6.029,-0.005,0.024,0.011,103.0,101.0,100.0,13.3,1505.2,327.3,-0.7,1.8,2471.054,13.29,0.024,348.2
2022-08-29T08:22:03,42.805,6.029,0.024,0.006,0.006,102.0,103.0,101.0,13.4,1505.2,322.6,-0.8,1.8,2471.108,13.29,0.024,76.0
2022-08-29T08:25:03,42.805,6.029,-0.006,0.0,-0.035,102.0,103.0,101.0,13.3,1505.2,322.9,-0.8,1.8,2471.061,13.29,0.006,270.0
2022-08-29T08:28:03,42.805,6.029,0.03,-0.007,-0.008,103.0,103.0,101.0,13.4,1505.2,321.7,-0.8,1.8,2471.074,13.29,0.03,103.1
2022-08-29T08:31:03,42.805,6.029,-0.007,0.007,-0.022,101.0,102.0,102.0,13.3,1505.2,327.5,-0.7,1.8,2471.03,13.29,0.009,315.0
2022-08-29T08:34:03,42.805,6.029,0.003,0.005,-0.003,101.0,103.0,101.0,13.4,1505.2,317.7,-0.7,1.8,2471.044,13.29,0.005,31.0
2022-08-29T08:37:03,42.805,6.029,-0.006,0.007,-0.017,101.0,103.0,100.0,13.3,1505.2,332.0,-0.8,1.8,2471.056,13.29,0.009,319.4
2022-08-29T08:40:03,42.805,6.029,-0.006,0.001,-0.044,102.0,103.0,100.0,13.4,1505.2,329.0,-0.8,1.8,2471.072,13.29,0.006,279.5
2022-08-29T08:43:03,42.805,6.029,0.017,-0.014,-0.02,102.0,102.0,101.0,13.3,1505.2,327.5,-0.8,1.8,2471.012,13.29,0.022,129.5
2022-08-29T08:46:03,42.805,6.029,0.019,-0.012,-0.006,102.0,105.0,100.0,13.4,1505.2,332.5,-0.7,1.8,2471.034,13.29,0.022,122.3
2022-08-29T08:49:03,42.805,6.029,0.012,0.015,0.009,101.0,101.0,101.0,13.4,1505.2,321.3,-0.7,1.8,2471.068,13.29,0.019,38.7
2022-08-29T08:52:03,42.805,6.029,0.011,0.024,0.008,101.0,103.0,101.0,13.4,1505.2,332.8,-0.8,1.8,2471.081,13.29,0.026,24.6
2022-08-29T08:55:03,42.805,6.029,0.005,0.011,0.0,102.0,103.0,101.0,13.4,1505.2,327.5,-0.7,1.8,2471.036,13.29,0.012,24.4
2022-08-29T08:58:03,42.805,6.029,-0.005,0.01,-0.036,101.0,102.0,101.0,13.3,1505.2,333.1,-0.7,1.8,2471.056,13.29,0.011,333.4
2022-08-29T09:04:03,42.805,6.029,-0.01,0.011,-0.001,102.0,101.0,101.0,13.4,1505.2,326.6,-0.8,1.8,2471.062,13.28,0.014,317.7
2022-08-29T09:07:03,42.805,6.029,0.001,0.015,-0.03,103.0,102.0,101.0,13.4,1505.2,332.6,-0.8,1.8,2471.09,13.28,0.015,3.8
2022-08-29T09:10:03,42.805,6.029,-0.011,-0.016,-0.037,103.0,102.0,102.0,13.4,1505.2,332.8,-0.8,1.8,2471.074,13.28,0.019,214.5
2022-08-29T09:13:03,42.805,6.029,0.003,0.0,-0.013,102.0,103.0,101.0,13.3,1505.2,328.9,-0.8,1.9,2471.073,13.29,0.003,90.0
2022-08-29T09:16:03,42.805,6.029,-0.004,-0.008,-0.009,103.0,103.0,101.0,13.4,1505.2,325.6,-0.7,1.8,2471.058,13.29,0.008,206.6
2022-08-29T09:19:03,42.805,6.029,-0.011,0.008,0.011,103.0,104.0,100.0,13.4,1505.2,322.6,-0.8,1.8,2471.096,13.29,0.013,306.0
2022-08-29T09:22:03,42.805,6.029,-0.012,0.007,-0.027,104.0,103.0,100.0,13.3,1505.2,322.9,-0.7,1.9,2471.076,13.29,0.013,300.3
2022-08-29T09:25:03,42.805,6.029,0.018,-0.004,-0.01,102.0,101.0,101.0,13.4,1505.2,327.9,-0.8,1.8,2471.031,13.29,0.018,102.5
2022-08-29T09:28:03,42.805,6.029,0.003,0.008,-0.007,102.0,106.0,101.0,13.3,1505.2,331.3,-0.7,1.8,2471.056,13.29,0.008,20.6
2022-08-29T09:31:03,42.805,6.029,-0.003,0.008,-0.024,101.0,103.0,100.0,13.4,1505.2,328.3,-0.8,1.8,2471.007,13.29,0.008,339.4
2022-08-29T09:34:03,42.805,6.029,0.016,-0.02,-0.042,102.0,102.0,101.0,13.3,1505.2,330.0,-0.7,1.8,2471.041,13.29,0.025,141.3
2022-08-29T09:37:03,42.805,6.029,-0.009,0.0,-0.056,101.0,103.0,101.0,13.4,1505.2,320.6,-0.7,1.8,2471.031,13.29,0.009,270.0
2022-08-29T09:40:03,42.805,6.029,0.008,0.012,-0.001,101.0,103.0,100.0,13.4,1505.2,318.6,-0.8,1.8,2471.023,13.29,0.014,33.7
2022-08-29T09:43:03,42.805,6.029,0.009,0.008,-0.041,100.0,103.0,101.0,13.4,1505.2,319.8,-0.7,1.8,2471.002,13.29,0.012,48.4
2022-08-29T09:46:03,42.805,6.029,0.015,0.005,-0.012,102.0,101.0,102.0,13.4,1505.2,321.1,-0.7,1.8,2471.02,13.29,0.015,71.6
2022-08-29T09:49:03,42.805,6.029,-0.003,0.0,-0.019,102.0,102.0,100.0,13.4,1505.2,324.0,-0.7,1.8,2471.016,13.29,0.003,270.0
2022-08-29T09:52:03,42.805,6.029,0.003,-0.001,-0.011,101.0,104.0,101.0,13.4,1505.2,322.5,-0.8,1.8,2471.029,13.29,0.003,108.4
2022-08-29T09:55:03,42.805,6.029,0.036,-0.001,-0.01,102.0,103.0,100.0,13.4,1505.2,329.2,-0.8,1.8,2470.993,13.29,0.036,91.6
2022-08-29T09:58:03,42.805,6.029,0.013,-0.011,-0.026,101.0,102.0,101.0,13.4,1505.2,319.8,-0.7,1.8,2471.034,13.29,0.017,130.2